WHDW 17-07

operational
NORAD ID: 67242 Int'l Des: 2025-311 Owner: ZXW Country: CN
NOTLE

About WHDW 17-07

Description loading...

Live Position

Loading 3D Globe...

Upcoming Passes

Altitude History

Altitude vs Time

uPlot chart will show altitude changes over time

Two-Line Element Set

1 67242U 25311G 26014.20089423 -.00000032 00000-0 92024-4 0 9991
2 67242 50.0054 319.1652 0006699 327.8064 32.2425 13.90195273 2688
Epoch: Jan 14, 2026 • Age: 13 hours

Current Status

Altitude 936.5 km
Velocity 7.39 km/s
Sub-Earth Point 48.94°N, 48.84°E
Launch Date Dec 25, 2025
Age 20 days
Type other

Technical Details

Classification Payload
Mass 700.00 kg
Dry Mass 700.00 kg
Total Mass 700.00 kg
Length 3.00 m
Diameter 1.00 m
Span 10.00 m
Shape Box + 2 Pan
Manufacturer CAST
Bus Type Xingwang C
Phase Status In Orbit
Owner/State ZXW/CN

Large Constellations

Loading constellations...